Temp
14 14 16 17 16 16 17 17 18 18 18 18 18 17 16 16 16 15 15 14 14 14 13 13 12 10 11 13 12 11 12 11 10 10 10 10 10 10 10 10 11 11 11 11
14 15 17 17 17 17 17 18 19 18 18 18 17 17 17 16 16 15 15 15 14 13 14 13 13 12 12 12 12 12 12 11 10 10 10 9 9 9 9 10 10 10 10 10
14 18 17 16 16 16 17 18 19 19 18 18 18 16 16 16 16 16 15 15 14 13 13 13 13 13 12 12 12 12 12 11 11 10 10 10 10 10 10 10 10 10 10 9
15 16 16 16 16 17 18 18 18 19 18 17 17 16 16 16 16 15 15 15 14 14 13 13 13 13 13 12 12 11 11 11 10 10 10 10 10 10 10 10 10 9 9 10
16 17 16 16 17 18 18 19 18 19 18 18 18 18 15 15 16 16 15 15 14 14 13 13 14 14 13 13 12 12 11 11 11 10 10 10 10 10 10 10 10 10 9 9
15 16 16 17 18 18 18 18 18 18 18 17 16 16 16 16 16 15 16 15 14 13 13 14 14 14 14 13 12 12 12 11 11 11 10 10 10 10 10 10 10 10 9 9
16 16 17 18 18 18 18 18 18 16 14 13 16 17 16 16 16 15 15 15 14 14 14 14 14 14 14 13 13 12 12 11 11 11 11 11 10 10 10 11 10 9 8 8
16 17 18 18 18 18 18 18 17 14 13 13 16 16 16 16 16 16 15 14 14 14 14 14 14 14 14 13 13 13 12 12 11 11 10 10 10 10 11 10 9 9 9 8
16 17 18 18 18 18 18 18 18 18 16 14 13 14 16 16 16 15 15 14 14 14 14 14 14 14 13 13 13 13 12 12 12 11 11 11 10 10 10 9 9 9 9 8
16 16 18 18 19 18 18 19 18 18 12 12 11 12 15 16 15 15 15 14 14 14 15 14 13 13 13 13 12 12 12 12 12 12 11 11 11 10 9 9 9 9 8 8
17 16 18 18 18 18 18 18 18 17 16 11 8 12 16 15 15 14 14 14 14 14 13 14 14 13 13 13 12 12 12 12 12 11 11 11 10 10 10 9 9 9 8 8
17 17 18 18 18 18 18 17 17 17 15 14 14 15 16 15 15 14 14 13 14 14 13 13 13 13 13 12 12 12 12 12 11 11 10 10 10 10 10 9 9 8 8 8
18 18 18 18 18 18 18 17 16 16 16 15 14 16 17 16 15 15 15 14 14 13 13 13 13 13 13 12 12 11 11 11 11 10 10 10 10 10 10 10 9 9 8 8
18 18 18 18 18 18 18 17 16 16 16 16 17 17 16 16 15 15 15 14 14 14 13 13 12 12 12 12 11 11 11 10 10 9 9 9 9 9 9 9 10 10 9 9
18 18 17 17 17 17 17 16 16 16 15 16 17 16 17 16 16 15 14 13 13 13 13 14 12 11 12 11 11 11 10 9 9 9 9 9 9 9 9 8 9 9 9 9
18 18 17 16 16 17 17 16 16 16 16 16 16 16 16 16 15 14 14 13 13 13 13 13 11 11 10 11 10 10 10 9 9 9 8 8 8 8 8 8 8 8 9 9
17 17 16 16 16 16 15 16 16 15 15 15 15 16 16 15 15 14 14 13 14 14 12 11 11 11 10 10 10 10 9 9 8 8 8 8 8 8 8 8 8 8 8 9
17 17 15 14 15 13 16 16 15 15 16 15 15 15 15 15 14 14 13 14 13 13 12 6 9 10 10 10 10 9 8 7 8 7 7 6 6 6 7 8 8 8 8 8
15 16 15 14 14 14 15 15 14 15 16 16 15 14 14 14 14 13 12 12 12 11 11 11 11 9 9 8 8 8 7 7 7 7 6 6 5 5 6 6 7 8 8 8
13 14 15 13 13 12 13 14 14 14 15 14 15 16 14 13 13 13 13 12 12 12 11 11 11 10 8 8 8 7 7 7 7 6 5 6 6 6 6 6 6 7 8 8
12 12 12 13 13 13 13 13 13 13 14 14 14 14 13 13 13 13 13 12 12 11 11 10 10 8 8 7 7 7 7 7 6 6 6 6 7 6 7 7 7 7 7 8
11 11 11 10 10 11 13 12 13 13 13 13 13 13 13 13 13 13 12 12 11 11 10 10 9 9 8 7 7 7 7 6 6 6 6 7 7 6 6 7 7 7 7 8
12 13 11 11 10 11 11 12 12 12 13 12 12 13 12 12 12 12 11 11 11 11 11 9 9 7 7 7 7 7 6 7 7 6 6 6 6 7 7 7 7 7 7 7
11 11 10 10 11 12 11 12 12 12 12 13 12 12 12 12 11 11 11 10 10 10 9 9 8 7 7 7 7 7 6 6 6 5 5 6 6 6 6 7 7 7 7 8
11 10 11 11 11 11 12 11 11 12 12 12 12 11 11 11 11 10 9 9 8 7 6 7 7 7 7 7 6 6 6 6 6 6 6 6 6 7 7 7 7 7 7 7
11 11 11 12 11 12 11 11 11 11 11 11 11 11 11 10 9 9 8 8 7 7 7 7 6 6 6 6 5 5 5 6 6 6 7 7 7 7 7 8 8 8 8 8
Height
3192 3193 3190 3190 3194 3195 3195 3196 3195 3195 3196 3197 3196 3198 3201 3201 3200 3199 3198 3198 3197 3195 3197 3194 3194 3196 3194 3193 3196 3197 3195 3193 3197 3198 3198 3197 3197 3196 3196 3196 3194 3193 3193 3192
3190 3187 3188 3192 3194 3194 3194 3194 3193 3195 3195 3196 3195 3197 3198 3200 3200 3199 3199 3196 3195 3193 3194 3193 3194 3194 3191 3195 3194 3193 3192 3191 3194 3195 3195 3195 3195 3194 3192 3192 3191 3191 3190 3188
3186 3185 3189 3191 3191 3193 3193 3192 3192 3194 3194 3194 3194 3198 3197 3199 3200 3198 3197 3196 3197 3196 3193 3193 3195 3194 3194 3193 3192 3192 3190 3193 3193 3193 3194 3192 3191 3190 3189 3188 3186 3186 3186 3186
3185 3184 3187 3189 3189 3191 3190 3191 3193 3194 3194 3193 3194 3198 3196 3194 3197 3199 3198 3197 3196 3195 3195 3193 3192 3192 3193 3192 3192 3191 3192 3193 3191 3192 3192 3190 3188 3186 3186 3183 3182 3181 3182 3182
3181 3182 3185 3186 3186 3188 3189 3190 3192 3192 3192 3192 3193 3194 3193 3194 3195 3195 3196 3196 3196 3195 3195 3192 3193 3192 3192 3192 3191 3192 3191 3190 3190 3190 3189 3188 3185 3182 3181 3177 3175 3176 3173 3175
3178 3180 3182 3182 3183 3185 3187 3188 3189 3189 3190 3190 3191 3192 3192 3191 3192 3194 3194 3195 3195 3195 3194 3192 3190 3189 3189 3190 3191 3191 3189 3188 3186 3188 3186 3186 3182 3179 3175 3172 3167 3166 3164 3160
3177 3176 3177 3179 3181 3183 3184 3185 3187 3188 3189 3192 3190 3192 3191 3190 3191 3193 3194 3194 3194 3195 3194 3192 3190 3190 3190 3189 3188 3188 3187 3186 3185 3186 3186 3182 3180 3175 3170 3162 3152 3145 3146 3149
3176 3173 3173 3176 3178 3179 3181 3183 3186 3190 3192 3192 3190 3188 3186 3187 3189 3191 3194 3193 3195 3195 3194 3192 3190 3189 3188 3187 3186 3186 3185 3185 3184 3182 3181 3179 3176 3171 3164 3151 3142 3133 3131 3135
3173 3171 3173 3175 3177 3179 3179 3180 3183 3183 3187 3189 3190 3187 3186 3184 3185 3189 3191 3192 3193 3194 3193 3192 3191 3189 3188 3187 3187 3186 3186 3185 3185 3182 3179 3177 3173 3167 3160 3149 3140 3134 3132 3136
3172 3172 3171 3171 3168 3175 3176 3178 3179 3179 3186 3188 3188 3185 3182 3182 3183 3186 3189 3191 3192 3193 3193 3192 3191 3190 3189 3188 3187 3187 3186 3184 3183 3181 3178 3174 3170 3165 3159 3151 3143 3138 3135 3136
3168 3172 3167 3170 3170 3172 3176 3175 3176 3177 3177 3182 3189 3179 3173 3176 3180 3182 3186 3188 3189 3188 3190 3191 3190 3190 3190 3189 3188 3187 3186 3183 3181 3178 3176 3172 3167 3163 3159 3153 3148 3144 3141 3141
3165 3167 3167 3169 3171 3173 3172 3170 3172 3178 3181 3180 3177 3171 3167 3170 3174 3178 3182 3184 3185 3186 3186 3187 3189 3188 3188 3187 3186 3185 3184 3182 3180 3177 3174 3170 3166 3162 3158 3155 3150 3147 3145 3142
3161 3164 3165 3166 3170 3170 3168 3171 3175 3173 3176 3175 3172 3168 3166 3168 3171 3175 3178 3180 3182 3182 3182 3184 3186 3186 3185 3185 3184 3183 3182 3180 3178 3174 3172 3167 3164 3161 3158 3155 3153 3149 3146 3145
3158 3159 3161 3164 3165 3165 3164 3168 3175 3175 3172 3171 3167 3166 3165 3166 3169 3171 3173 3175 3179 3180 3181 3182 3183 3183 3183 3181 3181 3181 3179 3178 3175 3172 3169 3165 3161 3157 3155 3153 3151 3150 3148 3146
3155 3155 3157 3160 3162 3164 3164 3167 3170 3168 3165 3163 3162 3163 3163 3164 3166 3168 3171 3173 3177 3177 3177 3179 3181 3182 3180 3180 3181 3180 3178 3175 3173 3170 3167 3162 3157 3153 3149 3148 3147 3146 3146 3144
3151 3153 3155 3157 3161 3163 3163 3163 3163 3165 3162 3162 3159 3162 3165 3167 3169 3171 3171 3172 3174 3173 3171 3177 3182 3180 3180 3178 3179 3179 3176 3173 3170 3168 3165 3161 3157 3152 3148 3144 3142 3142 3140 3140
3148 3151 3154 3156 3158 3161 3163 3162 3162 3163 3163 3163 3162 3162 3165 3166 3167 3169 3170 3172 3173 3163 3147 3152 3175 3181 3180 3178 3175 3175 3172 3167 3164 3162 3160 3157 3154 3152 3148 3144 3140 3138 3136 3134
3146 3148 3151 3154 3157 3160 3159 3159 3160 3161 3162 3161 3160 3162 3164 3166 3167 3169 3171 3172 3171 3165 3158 3128 3165 3175 3177 3174 3170 3168 3166 3162 3158 3156 3152 3151 3149 3146 3143 3141 3138 3135 3132 3130
3144 3146 3149 3154 3156 3158 3156 3157 3159 3158 3157 3158 3156 3161 3165 3166 3167 3167 3168 3169 3169 3168 3168 3164 3167 3165 3169 3166 3164 3162 3160 3158 3153 3151 3148 3145 3144 3141 3138 3134 3131 3129 3127 3124
3146 3148 3148 3151 3154 3157 3155 3155 3156 3156 3153 3152 3150 3152 3156 3161 3163 3164 3165 3165 3166 3165 3164 3161 3162 3163 3161 3161 3159 3158 3157 3155 3152 3148 3145 3141 3139 3136 3132 3128 3124 3121 3119 3118
3146 3148 3149 3148 3149 3156 3156 3153 3152 3154 3156 3150 3150 3152 3154 3157 3160 3161 3162 3163 3164 3164 3163 3161 3159 3157 3157 3156 3156 3155 3153 3151 3148 3144 3141 3137 3133 3129 3125 3121 3118 3114 3111 3110
3144 3148 3149 3149 3146 3153 3155 3155 3155 3152 3151 3151 3153 3155 3155 3156 3156 3158 3160 3162 3161 3159 3158 3158 3158 3157 3156 3155 3153 3152 3150 3146 3141 3136 3131 3128 3126 3124 3120 3115 3112 3108 3104 3102
3141 3141 3150 3150 3147 3154 3153 3152 3151 3152 3151 3150 3152 3151 3151 3153 3154 3156 3157 3157 3157 3157 3156 3154 3153 3152 3152 3150 3147 3145 3141 3136 3131 3127 3124 3121 3117 3115 3112 3109 3105 3102 3099 3096
3136 3138 3141 3143 3144 3144 3148 3149 3149 3153 3153 3151 3149 3148 3149 3149 3149 3150 3152 3152 3152 3152 3151 3151 3150 3149 3147 3144 3140 3134 3130 3126 3122 3119 3116 3112 3108 3106 3103 3100 3097 3094 3091 3088
3136 3133 3134 3137 3138 3139 3142 3143 3146 3148 3148 3148 3147 3146 3145 3146 3146 3146 3146 3146 3146 3147 3149 3149 3147 3145 3140 3136 3131 3126 3122 3118 3115 3111 3107 3103 3099 3095 3092 3090 3087 3084 3082 3078
3133 3133 3133 3134 3137 3138 3140 3142 3144 3143 3142 3141 3141 3141 3142 3142 3142 3142 3143 3143 3145 3146 3145 3142 3139 3135 3131 3127 3122 3118 3114 3110 3106 3102 3098 3094 3089 3085 3080 3077 3075 3073 3069 3067
Wind_Speed
15 10 20 21 15 14 18 21 13 12 15 6 9 15 11 7 8 8 4 6 5 6 6 9 3 13 13 6 12 3 5 6 3 4 5 5 9 12 12 12 10 9 11 13
13 20 24 15 10 11 19 8 12 8 15 6 10 12 13 11 9 3 3 8 5 10 11 7 6 9 10 6 5 3 6 4 1 3 4 8 12 14 14 14 15 11 11 13
18 24 18 17 17 19 15 15 14 12 16 7 12 13 14 10 10 8 5 10 2 3 8 8 9 9 9 8 5 1 3 2 2 5 8 10 12 15 15 15 16 18 16 16
19 16 16 15 20 19 11 10 10 7 9 10 14 8 17 15 8 3 6 2 4 4 7 10 13 14 8 6 4 4 4 5 1 6 9 11 14 14 16 19 20 24 24 22
17 12 14 19 20 16 14 12 8 5 5 6 8 7 3 9 8 6 2 7 5 7 9 12 10 9 7 5 2 2 2 3 4 6 10 13 15 17 17 21 26 26 25 28
25 21 22 20 13 8 16 12 10 16 12 10 8 5 7 4 4 11 5 6 7 5 11 9 8 6 4 1 0 2 3 4 6 9 12 16 17 19 25 27 33 36 35 35
16 19 16 13 9 7 11 11 5 4 2 3 7 2 4 3 9 12 9 6 6 13 9 5 3 3 5 5 6 5 5 6 8 11 12 15 18 22 26 36 37 39 39 39
8 16 18 11 16 18 17 11 13 5 2 3 8 7 13 10 11 15 14 13 12 10 6 2 2 5 5 7 7 6 6 6 9 11 13 14 15 19 27 28 23 19 17 30
4 14 9 15 14 14 19 17 14 7 13 2 4 13 14 12 19 16 18 16 10 10 7 3 5 1 3 5 4 3 3 3 5 7 10 12 14 18 28 30 22 16 5 12
17 24 14 21 20 20 11 12 10 6 5 2 5 7 17 17 19 18 20 17 14 8 4 3 6 4 2 2 1 1 3 5 6 8 11 14 16 19 22 26 29 15 11 2
23 24 15 16 10 18 13 16 18 3 4 7 4 10 9 14 20 22 20 24 19 19 13 6 7 8 5 2 3 3 3 5 8 10 11 14 17 17 17 19 22 23 12 9
17 18 9 8 10 7 6 12 13 6 5 5 6 11 10 4 27 24 24 27 28 15 17 14 10 11 11 7 6 5 5 6 8 10 14 14 16 17 17 14 12 13 13 12
17 14 24 15 11 7 6 7 13 7 3 11 7 5 7 12 29 29 26 29 29 21 21 16 15 9 10 9 6 7 8 10 12 13 16 18 18 17 17 13 11 10 8 7
17 14 12 12 9 9 9 13 4 5 7 11 16 9 22 20 30 32 30 27 35 26 20 15 17 10 10 7 6 8 10 12 14 17 19 21 21 19 17 16 14 11 9 7
21 16 9 4 4 7 1 7 9 7 18 3 20 17 17 20 23 25 24 28 30 27 22 20 17 14 6 7 8 9 10 12 17 17 19 19 19 18 17 16 16 16 15 15
18 11 12 16 12 7 6 7 6 4 10 12 5 14 16 17 25 28 28 29 27 25 26 21 10 11 11 9 10 10 13 13 15 21 16 16 19 18 16 16 17 18 21 21
15 13 15 12 14 10 4 4 6 3 5 10 12 11 19 22 25 24 25 21 24 35 27 22 10 7 10 9 10 10 14 19 23 28 24 21 22 20 14 14 15 16 15 18
17 17 10 10 13 1 7 11 8 3 7 5 10 3 16 18 21 19 20 23 22 24 20 8 10 9 14 15 14 17 19 19 27 33 32 33 33 33 28 16 14 16 17 16
9 15 7 7 8 3 10 13 11 16 19 17 9 13 15 21 19 22 20 20 21 21 24 28 12 7 16 17 15 18 21 24 31 33 34 34 36 38 34 27 22 19 17 18
4 2 10 12 5 2 7 6 8 12 5 4 11 13 22 22 21 18 16 17 19 21 22 22 8 11 12 20 19 20 24 28 30 28 34 38 41 39 33 28 26 24 22 20
7 4 3 5 3 5 4 4 4 8 8 4 6 14 20 18 16 15 16 16 17 16 13 14 15 11 17 18 21 24 26 29 30 35 40 36 30 30 28 27 27 27 26 23
6 4 5 3 2 5 5 5 11 5 8 19 6 11 15 18 16 14 13 12 13 16 18 20 17 19 24 27 27 26 30 35 39 36 35 33 27 22 25 27 27 26 26 26
10 15 10 6 9 6 9 9 9 8 11 10 10 13 12 11 12 13 16 15 17 21 23 23 15 18 24 26 28 34 41 39 34 29 28 27 26 26 25 24 24 25 26 26
7 7 15 24 17 10 3 11 15 11 13 15 17 17 18 18 19 21 23 22 20 20 19 17 18 22 25 31 38 38 32 29 28 28 30 31 32 30 28 28 27 28 29 30
9 11 11 17 15 19 14 5 7 15 17 17 20 19 20 21 21 19 17 15 14 11 10 13 19 26 30 29 29 29 30 30 32 33 35 35 35 35 33 33 33 32 33 36
13 10 16 16 11 15 17 18 15 13 15 15 18 19 19 20 18 16 15 14 14 16 20 22 27 30 32 31 31 33 33 34 34 34 35 36 37 37 38 38 35 34 35 36
Wind_Direction
198 242 208 192 219 260 289 292 256 289 184 170 152 158 158 189 210 217 227 303 4 8 338 284 328 142 38 7 62 155 127 112 223 233 262 282 281 287 293 293 293 297 268 257
203 225 192 202 242 280 304 274 275 314 199 207 153 168 192 191 214 209 321 338 20 331 331 331 323 268 323 336 339 2 45 62 241 334 310 278 277 279 276 287 290 293 273 257
214 176 203 239 263 274 277 246 255 292 186 192 181 165 182 193 223 219 249 319 324 354 309 306 306 303 306 333 335 281 2 321 34 348 318 305 291 284 289 295 295 279 273 262
229 196 242 258 271 287 232 257 287 266 188 178 203 178 191 208 205 225 247 263 302 319 310 328 305 288 305 328 342 359 319 291 10 338 319 304 293 294 291 276 277 282 272 268
207 226 251 269 274 258 260 263 279 303 309 291 233 218 197 203 207 266 213 321 326 338 300 306 310 308 302 308 5 356 319 328 357 307 317 305 301 296 289 283 273 272 270 272
244 257 271 275 247 246 242 281 271 295 265 291 319 247 348 266 241 152 195 280 308 309 318 301 317 344 16 352 135 286 9 357 323 313 302 307 310 309 303 297 287 275 263 257
254 259 250 252 239 205 232 264 302 331 14 193 93 8 359 267 176 180 198 236 260 283 317 304 331 65 69 63 53 40 19 352 326 311 316 317 318 316 316 309 294 278 261 248
266 237 197 201 227 242 224 248 247 212 123 203 260 269 263 175 175 207 212 222 238 285 306 259 202 76 73 61 58 46 25 345 338 327 321 320 323 329 336 345 327 321 257 246
259 261 214 248 250 245 234 248 264 271 129 124 244 246 234 213 207 221 194 219 239 288 281 230 179 125 89 62 60 57 28 350 331 323 326 335 340 338 358 11 5 356 333 250
237 259 278 313 240 228 223 234 238 248 140 163 246 242 221 234 201 177 196 220 236 252 261 239 218 202 158 88 61 342 350 360 348 343 343 346 348 353 358 13 19 19 27 8
225 247 274 322 202 211 235 267 260 236 127 148 173 246 213 216 183 187 199 204 233 250 260 263 257 255 247 263 288 297 321 350 346 343 339 345 344 349 357 5 16 42 66 71
235 241 251 295 302 258 22 50 66 244 148 207 201 255 230 228 196 201 202 204 228 246 247 269 285 291 271 278 291 296 309 329 333 329 334 334 336 335 347 358 350 7 35 38
220 242 245 270 282 249 178 41 41 137 102 207 179 261 168 193 187 192 204 217 224 225 239 257 276 299 266 262 293 298 305 321 326 327 327 328 322 321 324 330 339 338 330 302
215 226 227 239 271 256 290 248 356 36 96 284 237 235 218 198 197 198 206 210 218 226 240 264 277 292 267 268 279 297 314 324 326 325 323 319 315 311 309 307 305 301 298 299
217 225 217 206 179 170 183 285 254 348 38 243 245 223 183 190 190 199 194 192 209 221 234 270 260 269 281 294 292 303 312 308 312 317 326 327 328 318 307 296 291 292 290 291
207 217 186 159 168 190 229 266 271 272 54 57 23 197 182 185 192 199 219 214 221 240 251 257 258 266 299 273 282 291 307 326 358 333 340 352 355 337 328 317 306 289 282 280
220 199 181 170 169 197 204 259 272 284 89 58 25 201 179 192 206 205 202 217 250 262 211 199 224 303 292 266 271 302 330 342 346 344 342 346 350 350 334 317 311 307 302 294
214 206 161 157 170 176 234 240 225 234 212 234 346 211 213 197 195 204 223 239 244 262 289 35 190 263 287 280 316 329 324 322 331 342 343 339 337 335 332 319 307 304 301 292
173 207 152 150 174 240 228 244 254 266 275 255 230 191 199 205 203 207 213 230 254 266 272 292 309 246 299 300 303 311 310 316 323 328 330 327 323 322 319 314 309 306 297 292
35 179 177 113 85 289 337 190 221 289 262 248 241 236 208 198 197 212 224 241 254 275 298 305 280 257 251 277 291 293 301 308 309 311 312 311 307 305 304 299 300 300 297 293
53 14 51 213 211 292 218 204 255 212 211 228 215 183 191 207 223 224 235 248 271 278 291 322 309 259 250 266 275 284 291 294 294 299 297 299 301 300 295 293 294 296 298 295
30 37 32 242 100 261 253 209 207 194 214 190 238 204 223 219 231 233 238 241 254 256 260 297 290 259 259 264 271 281 286 289 293 297 299 305 302 290 290 290 291 292 293 293
276 288 238 196 173 253 198 210 194 181 197 204 235 239 249 247 249 261 267 262 264 268 273 291 287 261 263 269 279 286 292 298 301 300 306 306 304 302 297 290 286 287 287 286
222 216 230 214 200 230 162 218 231 241 235 254 258 260 262 262 267 265 268 266 274 282 281 291 283 270 277 283 288 297 302 304 306 305 303 303 302 301 298 295 291 287 284 284
200 205 211 208 219 234 232 212 204 247 263 261 260 263 266 272 276 276 275 275 278 264 258 268 275 289 296 300 301 302 304 305 304 302 301 300 300 299 296 292 290 287 285 284
173 166 171 175 194 210 198 194 201 234 257 265 261 257 263 274 273 266 264 266 272 284 296 303 308 315 316 309 307 304 303 303 303 303 303 304 302 300 299 296 292 289 286 283